Total_Precipitation_Accumulation
0.86 0.86 0.93 1.03 1.09 1.13 1.27 1.20 1.04 0.97 0.91 0.86 0.82 0.83 0.85 0.85 0.92 1.06 1.20 1.31 1.40 1.40 1.38 1.40 1.39 1.48 1.50 1.39 1.42 1.48 1.58 1.69 1.50 1.18 1.22 1.34 1.23 0.98 0.83 0.74 0.66 0.69 0.69
0.85 0.89 0.92 0.97 1.01 1.02 1.08 1.13 1.14 1.03 0.93 0.89 0.89 0.88 0.78 0.76 0.85 0.97 1.11 1.28 1.40 1.47 1.50 1.53 1.40 1.40 1.49 1.48 1.49 1.49 1.50 1.63 1.54 1.41 1.35 1.43 1.43 1.26 1.07 0.86 0.65 0.57 0.61
0.99 0.95 0.88 0.87 0.82 0.83 0.90 0.96 1.04 1.10 1.12 1.10 1.06 1.01 0.96 0.99 1.08 1.14 1.17 1.29 1.43 1.49 1.52 1.48 1.41 1.44 1.36 1.44 1.49 1.47 1.46 1.45 1.51 1.48 1.44 1.56 1.56 1.38 1.19 0.97 0.76 0.71 0.64
0.85 0.84 0.84 0.82 0.82 0.88 0.93 0.96 0.99 1.03 1.12 1.16 1.13 1.17 1.20 1.23 1.24 1.22 1.20 1.22 1.25 1.28 1.31 1.27 1.24 1.27 1.29 1.37 1.36 1.35 1.39 1.44 1.51 1.48 1.52 1.64 1.67 1.64 1.44 1.16 0.93 0.82 0.73
0.90 0.84 0.78 0.80 0.85 0.88 0.90 0.92 0.94 0.99 1.02 1.18 1.23 1.32 1.39 1.37 1.25 1.25 1.24 1.13 1.20 1.19 1.16 1.14 1.13 1.18 1.20 1.25 1.18 1.22 1.31 1.38 1.43 1.52 1.59 1.75 1.76 1.81 1.63 1.33 1.14 0.98 0.84
0.82 0.87 0.90 0.88 0.84 0.88 0.91 0.91 0.95 1.01 1.11 1.23 1.27 1.36 1.37 1.26 1.28 1.27 1.24 1.18 1.22 1.21 1.17 1.12 1.03 1.03 1.00 1.00 1.02 1.07 1.16 1.25 1.34 1.47 1.54 1.65 1.73 1.72 1.66 1.52 1.36 1.16 0.94
0.88 0.89 0.99 1.07 0.99 1.05 1.08 1.06 1.07 1.11 1.22 1.29 1.41 1.46 1.46 1.47 1.35 1.21 1.19 1.15 1.21 1.26 1.29 1.28 1.03 0.85 0.91 0.92 1.01 0.98 0.95 1.02 1.12 1.26 1.35 1.46 1.65 1.73 1.78 1.67 1.63 1.49 1.24
0.92 0.97 1.13 1.28 1.19 1.22 1.24 1.25 1.31 1.38 1.41 1.50 1.55 1.49 1.49 1.48 1.38 1.16 1.09 1.01 1.08 1.18 1.24 1.26 1.20 1.10 1.08 1.10 1.15 1.13 1.06 1.03 1.08 1.13 1.19 1.37 1.69 1.92 1.94 1.89 1.87 1.74 1.45
1.00 1.12 1.30 1.45 1.53 1.51 1.47 1.56 1.62 1.64 1.68 1.76 1.82 1.77 1.67 1.63 1.45 1.13 1.01 0.94 1.03 1.06 1.09 1.09 1.06 0.97 0.94 0.85 0.89 0.98 1.02 0.99 0.96 1.02 1.09 1.21 1.43 1.75 1.90 1.91 1.94 1.77 1.51
1.14 1.17 1.26 1.45 1.55 1.59 1.60 1.76 1.90 1.93 1.92 1.95 1.84 1.71 1.63 1.61 1.51 1.21 1.05 1.01 1.10 1.14 1.20 1.17 1.10 1.01 0.93 0.78 0.80 0.90 0.91 0.92 0.97 0.98 0.97 0.97 1.07 1.35 1.63 1.62 1.63 1.68 1.44
1.09 1.13 1.20 1.44 1.72 1.76 1.82 1.90 2.00 2.07 2.11 2.11 1.98 1.86 1.77 1.72 1.66 1.31 1.13 1.11 1.19 1.24 1.19 1.18 1.12 1.03 0.83 0.71 0.68 0.75 0.78 0.81 0.93 1.00 1.03 1.05 1.11 1.20 1.33 1.41 1.48 1.51 1.45
1.09 1.16 1.30 1.55 1.65 1.74 1.90 1.95 2.10 2.22 2.22 2.18 2.16 2.02 1.94 1.84 1.58 1.30 1.11 1.11 1.22 1.34 1.33 1.28 1.23 1.07 0.84 0.71 0.61 0.57 0.59 0.61 0.70 0.84 0.91 0.94 0.99 1.04 1.15 1.32 1.49 1.54 1.51
1.09 1.14 1.24 1.39 1.49 1.62 1.70 1.68 1.78 1.90 1.93 1.96 1.97 1.92 1.90 1.91 1.71 1.33 1.11 1.08 1.17 1.29 1.42 1.47 1.29 1.12 0.98 0.84 0.77 0.68 0.61 0.58 0.67 0.75 0.81 0.82 0.86 0.94 1.10 1.33 1.53 1.72 1.66
1.04 1.02 1.11 1.29 1.37 1.44 1.56 1.58 1.68 1.75 1.80 1.88 1.90 1.84 1.83 1.91 1.84 1.52 1.26 1.13 1.08 1.09 1.15 1.18 1.12 1.06 0.97 0.85 0.77 0.67 0.58 0.59 0.65 0.67 0.73 0.81 0.91 1.07 1.16 1.18 1.28 1.48 1.63
1.07 1.03 1.11 1.22 1.31 1.39 1.50 1.59 1.61 1.64 1.62 1.66 1.70 1.67 1.67 1.77 1.74 1.49 1.28 1.15 1.06 1.06 1.10 1.16 1.15 1.15 1.06 0.96 0.88 0.82 0.79 0.79 0.74 0.73 0.80 0.88 0.93 1.00 1.09 1.15 1.21 1.25 1.29
1.16 1.08 1.07 1.08 1.16 1.23 1.31 1.31 1.25 1.24 1.22 1.20 1.24 1.17 1.17 1.33 1.33 1.11 0.98 1.01 1.00 0.97 1.00 1.08 1.15 1.19 1.15 1.08 1.02 0.96 0.95 0.92 0.87 0.88 0.91 0.95 0.98 1.00 1.05 1.18 1.30 1.29 1.19
1.34 1.19 1.06 0.99 1.01 1.07 1.19 1.26 1.28 1.17 1.10 1.04 1.02 0.92 0.86 1.07 1.15 1.00 0.88 0.83 0.80 0.82 0.89 0.97 1.02 1.09 1.13 1.03 0.94 0.88 0.87 0.88 0.92 0.95 0.94 0.96 1.02 1.08 1.13 1.22 1.33 1.40 1.31
1.29 1.18 1.03 0.97 0.96 0.96 1.02 1.11 1.18 1.25 1.23 1.08 0.93 0.83 0.74 0.86 0.97 0.92 0.81 0.72 0.71 0.72 0.77 0.86 0.93 0.98 1.03 1.00 0.91 0.91 0.94 0.99 0.99 0.99 1.01 1.02 1.08 1.13 1.18 1.22 1.26 1.32 1.32
1.18 1.09 0.98 0.95 0.96 0.88 0.82 0.89 0.97 1.06 1.16 1.13 0.96 0.87 0.78 0.82 0.89 0.85 0.73 0.64 0.67 0.68 0.69 0.74 0.81 0.88 0.91 0.90 0.90 0.92 0.94 0.98 0.94 0.95 1.01 1.06 1.04 1.09 1.09 1.13 1.21 1.29 1.32
0.94 0.85 0.82 0.85 0.84 0.81 0.80 0.83 0.93 1.02 1.10 1.09 0.97 0.84 0.73 0.75 0.82 0.82 0.72 0.67 0.66 0.62 0.61 0.66 0.74 0.79 0.84 0.87 0.94 0.98 0.95 0.99 1.02 0.97 1.00 1.08 1.02 1.02 1.02 1.03 1.13 1.19 1.20
0.75 0.63 0.55 0.60 0.70 0.76 0.81 0.88 0.99 1.07 1.08 0.99 0.84 0.69 0.60 0.57 0.67 0.68 0.71 0.72 0.69 0.67 0.67 0.66 0.70 0.75 0.78 0.85 0.94 0.99 1.00 1.02 1.05 1.00 0.99 1.07 1.05 1.06 1.09 1.06 1.07 1.18 1.19
0.70 0.58 0.49 0.51 0.58 0.63 0.73 0.87 0.95 0.95 0.90 0.83 0.75 0.65 0.60 0.57 0.63 0.65 0.70 0.70 0.67 0.66 0.62 0.63 0.66 0.73 0.78 0.82 0.87 0.94 0.96 0.96 1.00 1.03 1.02 1.06 1.09 1.06 1.09 1.08 1.06 1.16 1.25
0.65 0.50 0.40 0.39 0.42 0.46 0.58 0.76 0.82 0.77 0.70 0.68 0.67 0.65 0.65 0.66 0.64 0.66 0.69 0.67 0.65 0.62 0.58 0.62 0.66 0.70 0.76 0.77 0.77 0.83 0.88 0.89 0.88 0.94 1.04 1.06 1.09 1.11 1.12 1.14 1.14 1.16 1.24
0.54 0.41 0.29 0.26 0.30 0.40 0.55 0.72 0.74 0.66 0.62 0.64 0.65 0.67 0.67 0.66 0.64 0.65 0.67 0.68 0.67 0.66 0.63 0.64 0.64 0.62 0.66 0.72 0.71 0.68 0.69 0.67 0.68 0.76 0.88 0.98 1.03 1.11 1.12 1.12 1.16 1.13 1.21
0.49 0.40 0.31 0.26 0.30 0.43 0.61 0.72 0.65 0.59 0.58 0.59 0.57 0.61 0.65 0.68 0.68 0.69 0.68 0.70 0.70 0.72 0.69 0.65 0.64 0.61 0.56 0.57 0.60 0.57 0.55 0.47 0.48 0.57 0.69 0.82 0.88 0.98 1.04 1.04 1.12 1.15 1.17
0.46 0.42 0.36 0.32 0.37 0.49 0.62 0.66 0.61 0.57 0.60 0.57 0.56 0.59 0.64 0.68 0.67 0.65 0.66 0.67 0.66 0.64 0.58 0.55 0.54 0.55 0.54 0.51 0.46 0.42 0.37 0.35 0.37 0.45 0.55 0.67 0.78 0.87 0.93 0.98 1.03 1.11 1.11